Location: Nashville
(36.1660°N, 86.7840°W)
Time: 02:14:11
(UTC-05:00)

SO-50 - Visible Passes

Search period start: 20 May 2022 00:00
Search period end: 30 May 2022 00:00
Orbit: 588 x 695 km, 64.6° (Epoch: 20 May)

Date Brightness Start Highest point End Pass type
(mag) Time Alt. Az. Time Alt. Az. Time Alt. Az.
20 May ? 21:38:14 10° NW 21:42:57 46° WSW 21:45:15 27° S visible
21 May ? 20:22:22 10° NNW 20:27:08 46° NE 20:31:49 10° SE visible
21 May ? 22:03:48 10° WNW 22:07:10 19° WSW 22:09:31 14° SW visible
22 May ? 20:46:47 10° NW 20:51:42 73° WSW 20:56:13 12° SSE visible
23 May ? 21:11:49 10° NW 21:16:02 29° WSW 21:20:11 10° S visible
24 May ? 21:38:45 10° W 21:40:09 11° WSW 21:41:32 10° WSW visible
25 May ? 20:20:09 10° NW 20:24:50 44° WSW 20:29:26 10° S visible
26 May ? 20:45:47 10° WNW 20:49:03 18° WSW 20:52:16 10° SSW visible
